Flag Weather past 2 weeks in Prince George, British Columbia, Canada

Now
34 °F

Overcast.


Feels Like: 25 °F
Forecast: 31 / 38 °F
Wind: 12 mph from Southwest

Location: Prince George

Current Time: Nov 22, 2014 at 10:06:36 AM

Latest Report: Nov 22, 2014 at 9:00 AM


Visibility: 9 mi

Pressure: 29.45 "Hg

Humidity: 93%

Dew point: 32 °F

Location of Prince GeorgeLocation

Historic Weather in Prince George — Graph

°F

Prince George temperature yesterday

Maximum temperature yesterday: 41 °F (at 11:00 AM)
Minimum temperature yesterday: 36 °F (at 2:53 PM)
Average temperature yesterday: 37 °F

Past Weeks' High & Low Weather Summary

 TemperatureHumidityPressure
High43 °F (Nov 7, 11:55 PM)100% (Nov 7, 9:00 AM)30.77 "Hg (Nov 7, 9:00 AM)
Low3 °F (Nov 12, 1:02 AM)39% (Nov 10, 2:00 PM)29.15 "Hg (Nov 21, 10:00 PM)
Average22 °F90%30.29 "Hg
* Reported Nov 7 9:00 AM — Nov 22 9:00 AM, Prince George, Weather by CustomWeather, © 2014

Note: Actual official high and low records may vary slightly from our data, if they occured in-between our weather recording intervals... More about our weather records

Advertising

Prince George weather history for previous 24 hours

 ConditionsComfort  
Time TempWeatherWind HumidityBarometerVisibility
9:00 AM
Nov 22
34 °FOvercast.12 mph93%29.45 "Hg9 mi
8:00 AM34 °FLight rain. Cloudy.13 mph93%29.41 "Hg9 mi
7:54 AM34 °FLight rain. Cloudy.10 mph93%29.41 "Hg9 mi
7:02 AM36 °FLight rain. Overcast.9 mph87%29.37 "Hg9 mi
6:00 AM36 °FLight rain. Overcast.10 mph93%29.34 "Hg9 mi
5:00 AM36 °FLight rain. Mostly cloudy.9 mph93%29.30 "Hg9 mi
4:00 AM36 °FLight rain. Mostly cloudy.9 mph100%29.26 "Hg9 mi
3:45 AM36 °FLight rain. Overcast.9 mph100%29.26 "Hg9 mi
3:00 AM36 °FLight rain. Mostly cloudy.6 mph100%29.24 "Hg9 mi
2:00 AM36 °FLight rain. Overcast.9 mph100%29.21 "Hg9 mi
1:00 AM36 °FLight rain. Mostly cloudy.10 mph100%29.19 "Hg9 mi
12:59 AM36 °FLight rain. Mostly cloudy.10 mph100%29.18 "Hg9 mi
12:00 AM36 °FLight rain. Overcast.12 mph100%29.17 "Hg9 mi
11:00 PM
Nov 21
36 °FLight rain. Mostly cloudy.13 mph100%29.16 "Hg7 mi
10:00 PM37 °FLight rain. Overcast.15 mph93%29.15 "Hg9 mi
9:00 PM37 °FLight rain. Overcast.5 mph93%29.17 "Hg9 mi
8:46 PM36 °FLight rain. Overcast.3 mph100%29.17 "Hg7 mi
8:00 PM36 °FLight rain. Fog.5 mph93%29.18 "Hg1 mi
7:00 PM36 °FLight rain. Fog.6 mph93%29.21 "Hg1 mi
6:00 PM36 °FLight rain. Fog.5 mph100%29.23 "Hg1 mi
5:00 PM36 °FLight rain. Mostly cloudy.6 mph100%29.26 "Hg7 mi
4:45 PM36 °FLight rain. Fog.6 mph100%29.27 "Hg6 mi
4:00 PM36 °FLight rain. Fog.6 mph100%29.30 "Hg5 mi
3:00 PM36 °FLight rain. Fog.7 mph100%29.34 "Hg6 mi
2:53 PM36 °FLight rain. Fog.5 mph100%29.35 "Hg6 mi
2:00 PM37 °FLight rain. More clouds than sun.6 mph93%29.39 "Hg9 mi
1:00 PM39 °FOvercast.3 mph87%29.44 "Hg9 mi
12:03 PM39 °FLight rain. Mostly cloudy.8 mph81%29.47 "Hg9 mi
11:00 AM41 °FScattered clouds.3 mph76%29.51 "Hg9 mi
10:00 AM39 °FOvercast.3 mph81%29.54 "Hg9 mi
Weather by CustomWeather, © 2014

See weather overviewHow to use our weather pages